Change the Weather History Date:

Sunday, June 8, 2014

  Actual Average Record
Temperature  
Mean Temperature 68 °F -  
Max Temperature 74 °F 78 °F 93 °F (2011)
Min Temperature 64 °F 61 °F 54 °F (2012)
Cooling Degree Days 4    
Growing Degree Days 18 (Base 50)    
Moisture  
Dew Point 63 °F    
Average Humidity 83    
Maximum Humidity 94    
Minimum Humidity 68    
Precipitation  
Precipitation 0.00 in - - ()
Sea Level Pressure  
Sea Level Pressure 29.86 in    
Wind  
Wind Speed 11 mph (WSW)    
Max Wind Speed 15 mph    
Max Gust Speed 25 mph    
Visibility 10 miles    
Events Rain    
Averages and records for this station are not official NWS values.
T = Trace of Precipitation, MM = Missing Value Source: NWS Daily Summary

Daily Weather History Graph

Daily Weather History Graph

Search for Another Location

Airport or City:

Trip Planner

Search our weather history database for the weather conditions in past years. The results will help you decide how hot, cold, wet, or windy it might be!

Date:

Astronomy

Jun. 08, 2014 Rise Set
Actual Time 6:21 AM EDT 9:04 PM EDT
Civil Twilight 5:50 AM EDT 9:35 PM EDT
Nautical Twilight 5:11 AM EDT 10:14 PM EDT
Astronomical Twilight 4:27 AM EDT 10:58 PM EDT
Moon 4:26 PM EDT (6/8) 3:09 AM EDT (6/8)
Length of Visible Light 15h 45m
Length of Day
14h 43m
Waxing Gibbous, 77% of the Moon is Illuminated
Jun 8
Waxing Gibbous
Jun 13
Full
Jun 19
Last Quarter
Jun 27
New
Jul 5
First Quarter

Hourly Weather History & Observations

Time (EDT) Temp. Dew Point Humidity Pressure Visibility Wind Dir Wind Speed Gust Speed Precip Events Conditions
12:58 AM 73.8 °F 66.6 °F 78% 29.78 in 10.0 mi South 10.4 mph - N/A   Scattered Clouds
1:58 AM 73.0 °F 65.3 °F 77% 29.77 in 10.0 mi South 11.5 mph - N/A   Overcast
2:58 AM 71.6 °F 64.9 °F 79% 29.77 in 10.0 mi SSW 12.7 mph - N/A   Mostly Cloudy
3:03 AM 71.6 °F 64.4 °F 78% 29.78 in 10.0 mi SSW 12.7 mph - N/A   Mostly Cloudy
3:28 AM 71.6 °F 64.4 °F 78% 29.78 in 10.0 mi SSW 11.5 mph - N/A   Overcast
3:58 AM 70.7 °F 65.3 °F 83% 29.77 in 10.0 mi SW 10.4 mph - N/A   Overcast
4:38 AM 69.8 °F 66.2 °F 88% 29.78 in 10.0 mi SSW 12.7 mph 21.9 mph N/A   Overcast
4:58 AM 69.6 °F 65.8 °F 88% 29.76 in 10.0 mi SSW 13.8 mph - N/A   Overcast
5:13 AM 69.8 °F 66.2 °F 88% 29.77 in 10.0 mi SW 12.7 mph - N/A   Overcast
5:28 AM 68.0 °F 66.2 °F 94% 29.77 in 10.0 mi SW 12.7 mph - N/A   Mostly Cloudy
5:58 AM 68.9 °F 66.2 °F 91% 29.77 in 10.0 mi SW 10.4 mph - N/A   Overcast
6:58 AM 68.7 °F 65.7 °F 90% 29.77 in 10.0 mi SSW 13.8 mph 19.6 mph N/A   Overcast
7:18 AM 69.8 °F 66.2 °F 88% 29.79 in 10.0 mi SW 13.8 mph 19.6 mph N/A   Overcast
7:43 AM 69.8 °F 64.4 °F 83% 29.79 in 10.0 mi SSW 12.7 mph 20.7 mph N/A   Overcast
7:58 AM 69.1 °F 65.1 °F 87% 29.79 in 10.0 mi SSW 12.7 mph - N/A   Overcast
8:58 AM 69.1 °F 64.4 °F 85% 29.80 in 10.0 mi SW 12.7 mph 19.6 mph N/A   Overcast
9:38 AM 68.0 °F 60.8 °F 78% 29.83 in 10.0 mi WSW 15.0 mph 25.3 mph N/A   Overcast
9:43 AM 68.0 °F 60.8 °F 78% 29.83 in 10.0 mi West 15.0 mph 21.9 mph N/A   Overcast
9:58 AM 67.8 °F 61.3 °F 80% 29.83 in 10.0 mi West 15.0 mph 23.0 mph N/A   Overcast
10:03 AM 68.0 °F 60.8 °F 78% 29.84 in 10.0 mi West 15.0 mph 23.0 mph N/A   Overcast
10:38 AM 64.4 °F 60.8 °F 88% 29.87 in 10.0 mi West 13.8 mph 23.0 mph N/A   Overcast
10:58 AM 64.8 °F 61.0 °F 88% 29.87 in 10.0 mi West 10.4 mph 19.6 mph N/A   Overcast
11:58 AM 64.9 °F 60.6 °F 86% 29.89 in 10.0 mi West 11.5 mph - N/A   Overcast
12:13 PM 64.4 °F 60.8 °F 88% 29.90 in 10.0 mi West 10.4 mph - N/A   Overcast
12:58 PM 66.0 °F 60.6 °F 83% 29.91 in 10.0 mi West 11.5 mph - N/A   Overcast
1:38 PM 66.2 °F 60.8 °F 83% 29.94 in 10.0 mi West 12.7 mph - N/A   Overcast
1:58 PM 67.6 °F 61.5 °F 81% 29.94 in 10.0 mi West 11.5 mph - N/A   Overcast
2:53 PM 69.8 °F 62.6 °F 78% 29.95 in 10.0 mi West 10.4 mph - N/A   Mostly Cloudy
2:58 PM 70.0 °F 61.7 °F 75% 29.94 in 10.0 mi West 8.1 mph - N/A   Mostly Cloudy
3:58 PM 73.2 °F 62.6 °F 69% 29.94 in 10.0 mi NW 9.2 mph - N/A   Scattered Clouds
4:58 PM 73.0 °F 62.8 °F 70% 29.93 in 10.0 mi West 5.8 mph - N/A   Mostly Cloudy
5:58 PM 73.9 °F 62.6 °F 68% 29.93 in 10.0 mi West 4.6 mph - N/A   Mostly Cloudy
6:58 PM 73.0 °F 62.6 °F 70% 29.94 in 10.0 mi West 4.6 mph - N/A   Scattered Clouds
7:58 PM 72.5 °F 63.3 °F 73% 29.94 in 10.0 mi NW 1.2 mph - N/A   Mostly Cloudy
8:58 PM 68.2 °F 64.6 °F 88% 29.95 in 10.0 mi NNW 2.3 mph - N/A   Overcast
9:58 PM 64.2 °F 62.4 °F 94% 29.96 in 10.0 mi North 1.2 mph - N/A   Partly Cloudy
10:45 PM 64.4 °F 62.6 °F 94% 29.97 in 10.0 mi ENE 3.5 mph - N/A Rain Light Rain
10:58 PM 65.7 °F 63.5 °F 93% 29.97 in 10.0 mi SSE 2.3 mph - 0.00 in   Light Drizzle
11:00 PM 66.2 °F 62.6 °F 88% 29.97 in 10.0 mi SSW 2.3 mph - N/A   Light Drizzle
11:05 PM 64.4 °F 62.6 °F 94% 29.97 in 10.0 mi Calm Calm - N/A   Overcast
11:58 PM 66.9 °F 63.1 °F 88% 29.96 in 10.0 mi Variable 1.2 mph - 0.00 in   Overcast